Location: Samoth
(37.3328°N, 88.7876°W)
Time: 14:38:09
(UTC+00:00)

Daily predictions for brighter satellites

Satellite Brightness Start Highest point End
(mag) Time Altitude Azimuth Time Altitude Azimuth Time Altitude Azimuth
Cosmos 1656 3.7 23:18:24 10° S 23:23:51 65° ESE 23:29:26 10° NNE
Cosmos 968 Rocket 4.5 23:21:17 10° N 23:25:33 25° ENE 23:29:47 10° ESE
OAO 3 Rocket 4.4 23:23:06 10° W 23:27:38 40° SSW 23:32:05 10° SE
Cosmos 1300 2.8 23:23:51 10° S 23:27:39 82° W 23:31:29 10° N
Aureole 3 Rocket 3.3 23:24:50 10° SSE 23:28:31 50° E 23:33:33 10° NNE
CZ-4B R/B 1.1 23:25:41 10° NNE 23:28:50 74° ESE 23:31:54 10° S
NOAA 12 4.1 23:23:55 10° SSE 23:29:11 81° ENE 23:34:32 10° N
SAR-Lupe-4 4.0 23:26:06 10° NNE 23:29:30 40° E 23:32:54 10° S
NOSS 3-3 (A) 4.1 23:24:19 10° S 23:29:44 50° ESE 23:35:43 10° NE
NOSS 3-3 (C) 4.1 23:24:27 10° S 23:29:52 49° ESE 23:35:50 10° NE
Cosmos 1400 Rocket 2.8 23:27:54 10° S 23:31:58 66° E 23:36:01 10° NNE
CZ-4B R/B 3.5 23:28:20 10° S 23:33:56 77° WSW 23:39:29 10° NNW
H-2A R/B 4.0 23:33:10 10° N 23:36:46 30° WNW 23:40:20 10° SW
Cosmos 2369 4.3 23:31:40 10° SSE 23:36:48 35° ESE 23:41:57 10° NE
Cosmos 1825 4.2 23:36:37 10° ENE 23:37:07 10° ENE 23:37:07 10° ENE
GPS 2-04 Rocket1 3.6 23:33:48 10° SW 23:37:31 38° SSE 23:41:13 11° E
ERS-2 2.5 23:34:41 10° N 23:38:19 70° WNW 23:41:56 10° SSW
COSMO-SKYMED 1 2.9 23:35:10 10° NNE 23:39:20 44° E 23:43:29 10° S
Cosmos 1302 Rocket 4.4 23:35:54 10° SSW 23:41:06 68° WNW 23:46:24 10° NNE
Helios 1A Rocket 4.0 23:38:07 10° ESE 23:41:23 23° ENE 23:44:39 10° NNE
OAO 2 Rocket 3.5 23:37:28 10° WSW 23:42:28 65° S 23:46:58 12° E
Cosmos 1244 Rocket 4.5 23:38:37 10° N 23:44:50 68° E 23:51:05 10° SSE
CZ-2D R/B 4.2 23:42:28 10° SE 23:45:41 26° ENE 23:48:53 10° NNE
SAR-Lupe-1 4.0 23:43:48 10° NNE 23:47:21 68° E 23:50:51 10° S
YAOGAN 1 3.8 23:44:19 10° ESE 23:47:27 20° ENE 23:50:35 10° NNE
Cosmos 1340 2.7 23:44:34 10° N 23:48:18 56° E 23:52:00 10° SSE
Cosmos 2227 Rocket 2.4 23:43:53 10° N 23:49:22 49° ENE 23:54:50 10° SE
CZ-4 R/B 2.4 23:48:21 10° ESE 23:51:25 23° ENE 23:54:29 10° NNE
Cosmos 1812 Rocket 4.5 23:49:28 10° SSE 23:53:09 27° E 23:56:50 10° NNE
Okean O Rocket 2.9 23:51:10 10° S 23:55:20 45° W 23:59:31 10° NNW
SL-4 R/B 4.1 23:56:31 10° N 23:57:41 11° NNE 23:58:52 10° NE
